カタログに戻る

STARLINK-3902

運用中通信VLEO
NORAD 52487·PAYLOAD·🇺🇸 United States

打ち上げ May 6, 2022 から Cape Canaveral Space Force Station

Loading…

次のパス (今後24時間)

TLE

最新Source: CelesTrak SupGP

元期: Sep 14, 2026, 22:08 UTC

1 52487C 22049AN  26257.92270833  .00052464  00000+0  15504-2 0  2573
2 52487  53.1575 269.4408 0001124  90.1703 294.4478 15.34357919    11

AllMySatでSTARLINK-3902をリアルタイム追跡

Download on the App Store